[[{"header":{"parameterUnit":"m.s-1","parameterCategory":1,"la1":30.2991,"la2":30.254,"lo1":-89.0895,"lo2":-89.0444,"dy":0.0017,"dx":0.0017,"nx":28,"ny":28,"refTime":"2024-07-08T09:00:00:Z","depth":0,"parameterNumber":2,"parameterNumberName":"U-component_of_WINDS"},"data":[0,0,0,0,0,0,0,0,0,0,0,0,0,0,0,0,0,0,0,0,0,0,0,0,0,0,0,0,0,0,0,0,0,0,0,0,0,0,0,0,0,0,0,0,0,0,0,0,0,0,0,0,0,0,0,0,0,0,6.4281,6.4283,0,6.4447,6.4448,6.445,6.4397,6.4393,6.439,6.4387,6.4555,6.4562,6.457,0,0,0,0,0,0,0,0,0,0,0,0,0,6.3916,6.3923,6.4281,6.4283,6.4285,6.4446,6.4449,6.4451,6.4398,6.4393,6.4389,6.4385,6.4552,6.4561,6.457,0,0,0,0,0,0,0,0,0,0,0,0,0,6.4077,6.3925,6.428,6.4278,6.4279,6.4446,6.4449,6.4451,6.4399,6.4393,6.4388,6.4383,6.4549,6.456,6.4572,6.475,0,0,6.4607,6.4612,0,0,0,0,0,0,0,0,6.4068,6.409,6.4276,6.4278,6.428,6.4396,6.4381,6.4552,6.44,6.4353,6.4386,6.438,6.4506,6.4521,6.4563,6.4758,6.4765,6.4608,6.4615,6.4621,6.4624,0,0,0,0,0,0,0,6.4057,6.4083,6.4346,6.4279,6.4281,6.4268,6.4285,6.4413,6.4457,6.4357,6.4353,6.4374,6.4506,6.4552,6.4567,6.4768,6.4608,6.4618,6.4626,6.463,6.5115,6.5121,0,0,0,0,0,0,6.4045,6.4074,6.4341,6.4351,6.4159,6.4279,6.4298,6.4364,6.4456,6.4465,6.4378,6.4371,6.4535,6.4553,6.4573,6.4785,6.462,6.4631,6.4638,6.5109,6.5116,6.5123,0,0,0,0,0,0,6.4037,6.4069,6.4334,6.4212,6.4245,6.429,6.4365,6.437,6.4416,6.4472,6.4479,6.4418,6.4532,6.4556,6.4706,6.479,6.4637,6.4647,6.5102,6.5111,6.5119,6.5213,0,0,0,0,0,0,6.4027,6.4067,6.4135,6.4214,6.4251,6.4465,6.4371,6.4377,6.4437,6.4429,6.4511,6.4519,6.4529,6.4689,6.4718,6.4803,6.4656,6.5095,6.5106,6.5117,6.5202,6.5224,6.5242,0,0,0,0,0,6.4014,6.4155,6.4139,6.4171,6.4338,6.447,6.4492,6.4501,6.4444,6.4512,6.4548,6.4517,6.4778,6.4705,6.4737,6.4827,6.5089,6.5103,6.5116,6.5193,6.5219,6.5241,0,0,0,0,0,0,6.4084,6.4165,6.4148,6.4319,6.4388,6.4461,6.4548,6.4529,6.4615,6.4603,6.4611,6.463,6.4783,6.4821,6.4738,6.5004,6.4925,6.4945,6.4973,6.4998,6.5018,6.5003,6.4666,0,0,0,0,0,6.4119,6.4221,6.4286,6.443,6.4466,6.4502,6.456,6.4561,6.4633,6.4661,6.4708,6.4778,6.4876,6.494,6.5033,6.5209,6.5225,6.5287,6.5307,6.5323,6.5339,6.5432,6.546,6.5166,6.5166,6.5166,0,0,6.4193,6.425,6.4313,6.4446,6.45,6.4603,6.4526,6.464,6.4716,6.4678,6.4821,6.4859,6.4938,6.5101,6.5175,6.5137,6.5424,6.534,6.5352,6.536,6.5449,6.5477,6.5501,6.5175,6.5173,6.5172,0,0,6.4379,6.4434,6.4559,6.4615,6.4698,6.4721,6.4751,6.4828,6.4851,6.4996,6.4969,6.506,6.5229,6.5285,6.5336,6.5546,6.5519,6.5576,6.5678,6.5769,6.5792,6.5813,6.5884,6.591,6.5593,6.5593,6.5594,0,6.446,6.4615,6.4626,6.4741,6.4799,6.4772,6.4897,6.4951,6.506,6.51,6.5057,6.5267,6.5318,6.5493,6.5544,6.5588,6.562,6.5565,6.5789,6.5809,6.5828,6.5896,6.5924,6.5599,6.5599,6.5598,6.5598,0,6.4709,6.4817,6.4908,6.5014,6.5084,6.5204,6.5231,6.53,6.5296,6.5323,6.547,6.5531,6.5635,6.5678,6.5675,6.5852,6.5826,6.5786,6.5706,6.5862,6.5926,6.5953,6.5608,6.5606,6.5604,6.5603,0,0,6.494,6.5051,6.5084,6.5131,6.5222,6.5305,6.5424,6.5527,6.5584,6.5661,6.5759,6.5903,6.5867,6.5924,6.5929,6.6009,6.6167,6.5959,6.5961,6.5992,6.6363,6.6389,6.6419,6.6152,6.6157,6.6161,6.6355,0,6.513,6.5339,6.5352,6.554,6.5639,6.5616,6.5719,6.5785,6.5815,6.5903,6.5935,6.6035,6.5982,6.6016,6.6095,6.6131,6.6241,6.6118,6.6241,6.6245,6.6217,6.6453,6.6482,6.6661,6.638,6.6385,6.6388,0,6.5379,6.5464,6.5662,6.5738,6.578,6.5873,6.5967,6.6053,6.6127,6.6143,6.6208,6.6201,6.6322,6.6241,6.6406,6.6322,6.6374,6.64,6.6407,6.6415,6.6323,6.6464,6.6719,6.6744,6.6428,6.6425,6.6422,0,6.5523,6.5687,6.5826,6.5868,6.5961,6.6026,6.6068,6.6137,6.6198,6.6281,6.632,6.6417,6.6468,6.6543,6.6561,6.6501,6.6725,6.6647,6.6739,6.6739,6.6783,6.678,6.7046,6.6825,6.6824,6.6824,6.6823,0,6.5731,6.5852,6.5892,6.5977,6.6112,6.6127,6.626,6.6297,6.636,6.6451,6.6438,6.6524,6.6545,6.6635,6.6651,6.6784,6.6809,6.6823,6.6825,6.6822,6.6819,6.6852,6.6838,6.6831,6.6829,6.6828,6.6827,0,6.5912,6.5944,6.6093,6.617,6.6192,6.6288,6.6353,6.6434,6.6463,6.6578,6.6606,6.6651,6.6756,6.6784,6.6909,6.692,6.7075,6.7068,6.705,6.7048,6.7138,6.7127,6.7431,6.747,6.7227,6.7229,6.7231,0,6.604,6.6133,6.622,6.6281,6.6325,6.6423,6.6485,6.6504,6.6569,6.6662,6.6732,6.6835,6.6919,6.7088,6.7131,6.7227,6.7219,6.7319,6.7232,6.7226,6.7215,6.7208,6.7216,6.7333,6.7336,6.7338,6.734,0,6.6264,6.6275,6.6365,6.6462,6.6536,6.6613,6.6686,6.6736,6.6765,6.6839,6.6947,6.7012,6.714,6.7242,6.734,6.7382,6.7365,6.7367,6.7393,6.7388,6.7372,6.7378,6.709,6.7359,6.7357,6.7356,6.7355,6.7354,6.6419,6.65,6.6574,6.6674,6.6732,6.6801,6.6881,6.692,6.7011,6.7117,6.7123,6.7239,6.7312,6.744,6.7488,6.7579,6.7548,6.7587,6.7595,6.7603,6.7609,6.7362,6.7597,6.7597,6.7596,6.7596,6.7595,0,6.6638,6.6685,6.6778,6.6881,6.6961,6.6941,6.7021,6.7088,6.7191,6.726,6.7343,6.7466,6.7566,6.7618,6.7717,6.7779,6.7774,6.7804,6.7797,6.7807,6.7633,6.7599,6.7806,6.7806,6.7806,6.7806,6.7806,6.7806,6.6761,6.6896,6.6917,6.7079,6.7125,6.7239,6.7287,6.735,6.7405,6.7543,6.7626,6.766,6.7723,6.7826,6.7916,6.7929,6.7964,6.7997,6.8006,6.7841,6.7819,6.7798,6.7766,6.8006,6.8006,6.8172,6.8173,6.8174]},{"header":{"parameterUnit":"m.s-1","parameterCategory":1,"la1":30.2991,"la2":30.254,"lo1":-89.0895,"lo2":-89.0444,"dy":0.0017,"dx":0.0017,"nx":28,"ny":28,"refTime":"2024-07-08T09:00:00:Z","depth":0,"parameterNumber":3,"parameterNumberName":"V-component_of_WINDS"},"data":[0,0,0,0,0,0,0,0,0,0,0,0,0,0,0,0,0,0,0,0,0,0,0,0,0,0,0,0,0,0,0,0,0,0,0,0,0,0,0,0,0,0,0,0,0,0,0,0,0,0,0,0,0,0,0,0,0,0,5.2005,5.2008,0,5.2252,5.2255,5.2257,5.2231,5.2227,5.2223,5.2219,5.2476,5.2487,5.2497,0,0,0,0,0,0,0,0,0,0,0,0,0,5.1515,5.1524,5.2005,5.2008,5.2011,5.2251,5.2255,5.2258,5.2231,5.2227,5.2222,5.2217,5.2473,5.2485,5.2498,0,0,0,0,0,0,0,0,0,0,0,0,0,5.1742,5.1527,5.2004,5.2027,5.2031,5.2251,5.2255,5.2259,5.2232,5.2226,5.2221,5.2215,5.2469,5.2484,5.25,5.2714,0,0,5.2548,5.2555,0,0,0,0,0,0,0,0,5.1729,5.176,5.202,5.2025,5.2031,5.2204,5.2176,5.2412,5.2234,5.2156,5.2219,5.2212,5.2391,5.2413,5.2472,5.2726,5.2737,5.2549,5.2559,5.2565,5.257,0,0,0,0,0,0,0,5.1713,5.1749,5.2103,5.2024,5.2031,5.2026,5.2051,5.2221,5.2304,5.2162,5.2161,5.219,5.2393,5.2457,5.2478,5.2741,5.2549,5.2563,5.2572,5.2579,5.3186,5.3193,0,0,0,0,0,0,5.1692,5.1736,5.2095,5.211,5.1862,5.2039,5.2068,5.2155,5.2302,5.2318,5.2195,5.2188,5.2433,5.2459,5.2487,5.2749,5.2565,5.258,5.2589,5.318,5.3188,5.3195,0,0,0,0,0,0,5.1681,5.1724,5.2085,5.1923,5.1968,5.2054,5.2152,5.2163,5.2227,5.2326,5.2341,5.2245,5.2429,5.2465,5.2658,5.2758,5.2587,5.2601,5.3172,5.3182,5.3191,5.3274,0,0,0,0,0,0,5.1667,5.172,5.1801,5.1925,5.1977,5.2251,5.2158,5.2172,5.2253,5.2247,5.2377,5.2393,5.2427,5.2635,5.2674,5.2776,5.2614,5.3163,5.3176,5.3188,5.3263,5.3286,5.3306,0,0,0,0,0,5.165,5.1816,5.1806,5.1849,5.208,5.2256,5.2287,5.2321,5.2261,5.2345,5.2409,5.2389,5.274,5.2655,5.2698,5.2807,5.3157,5.3173,5.3187,5.3254,5.3282,5.3305,0,0,0,0,0,0,5.1703,5.1832,5.1822,5.2033,5.2134,5.2251,5.2357,5.2349,5.247,5.2459,5.2498,5.2528,5.2724,5.2785,5.2687,5.3024,5.2941,5.2965,5.2976,5.3004,5.3025,5.3006,5.2627,0,0,0,0,0,5.1739,5.1869,5.1976,5.2151,5.2202,5.2271,5.2349,5.2367,5.2474,5.2517,5.2595,5.2701,5.2835,5.2923,5.3052,5.3272,5.3301,5.3368,5.3389,5.3406,5.3427,5.355,5.3582,5.3244,5.3244,5.3244,0,0,5.1815,5.1902,5.1982,5.2164,5.2245,5.2381,5.2308,5.2455,5.2557,5.254,5.2727,5.2789,5.2909,5.3117,5.3213,5.3174,5.3527,5.3426,5.3438,5.3451,5.3569,5.3601,5.3629,5.3255,5.3253,5.3251,0,0,5.2023,5.2101,5.2256,5.2338,5.246,5.2505,5.2543,5.2663,5.2702,5.2891,5.2881,5.3004,5.3234,5.3321,5.3395,5.3637,5.3624,5.3678,5.379,5.3909,5.3935,5.3959,5.4047,5.4078,5.3699,5.3699,5.3699,0,5.2102,5.2306,5.2338,5.2487,5.2568,5.2558,5.2717,5.2795,5.2954,5.3011,5.2965,5.3254,5.3334,5.3563,5.3622,5.3683,5.3728,5.3664,5.3928,5.3953,5.3975,5.406,5.4092,5.3705,5.3704,5.3704,5.3703,0,5.2398,5.254,5.2651,5.2803,5.2897,5.305,5.3107,5.3198,5.3208,5.3259,5.3452,5.3548,5.3697,5.3752,5.3764,5.3984,5.3956,5.3919,5.3837,5.4013,5.4093,5.4125,5.3713,5.3711,5.3709,5.3708,0,0,5.2646,5.2815,5.2855,5.2925,5.3059,5.317,5.3324,5.3468,5.3547,5.3657,5.3788,5.3983,5.395,5.4034,5.4055,5.416,5.4347,5.411,5.4114,5.4152,5.4597,5.4625,5.4662,5.4339,5.4345,5.435,5.4588,0,5.2869,5.3138,5.3172,5.3413,5.3545,5.3538,5.3672,5.377,5.3822,5.3943,5.4,5.4138,5.4083,5.4134,5.4237,5.4303,5.4438,5.4286,5.4463,5.4469,5.4434,5.4703,5.4733,5.4952,5.4619,5.4624,5.4628,0,5.3164,5.3281,5.3535,5.3652,5.3709,5.3829,5.3965,5.408,5.4192,5.4222,5.4316,5.4325,5.4486,5.4396,5.4619,5.4515,5.459,5.4633,5.4643,5.4661,5.456,5.473,5.5023,5.5056,5.4677,5.4673,5.467,0,5.3321,5.3543,5.3723,5.3783,5.3924,5.4009,5.4072,5.4178,5.4263,5.4382,5.4438,5.4575,5.465,5.4757,5.4803,5.4733,5.5024,5.4938,5.5055,5.5054,5.5117,5.5113,5.5427,5.5164,5.5163,5.5162,5.5162,0,5.3566,5.3722,5.3796,5.3907,5.4082,5.412,5.4293,5.4353,5.4448,5.4572,5.4574,5.4691,5.4744,5.487,5.4907,5.5087,5.512,5.5151,5.5159,5.5151,5.5148,5.5201,5.5188,5.5171,5.5169,5.5168,5.5166,0,5.3771,5.3827,5.4024,5.4141,5.4175,5.4299,5.44,5.4509,5.4559,5.4716,5.4756,5.4836,5.4984,5.504,5.5221,5.5245,5.5454,5.5449,5.5416,5.5418,5.5533,5.5522,5.5893,5.5944,5.5646,5.5649,5.5651,0,5.3924,5.4044,5.4175,5.4257,5.4323,5.4456,5.4543,5.4586,5.4677,5.4814,5.4907,5.5054,5.5174,5.5411,5.5486,5.5625,5.5624,5.5745,5.5645,5.5634,5.5628,5.5621,5.5634,5.5764,5.5767,5.5769,5.5771,0,5.4191,5.4213,5.4337,5.4472,5.4575,5.4684,5.4789,5.4857,5.4916,5.5018,5.5169,5.5262,5.5446,5.5593,5.5736,5.5803,5.5799,5.5802,5.5837,5.583,5.5807,5.5822,5.5467,5.5793,5.5791,5.579,5.5788,5.5788,5.4376,5.4482,5.4591,5.473,5.4814,5.4912,5.5021,5.5084,5.521,5.5363,5.5381,5.5544,5.5654,5.5845,5.5918,5.6047,5.6015,5.6065,5.6078,5.609,5.6099,5.5785,5.6073,5.6073,5.6072,5.6072,5.6071,0,5.4643,5.4713,5.484,5.4988,5.5098,5.5082,5.5198,5.5291,5.5434,5.5537,5.5655,5.5829,5.5972,5.6058,5.6202,5.6289,5.629,5.6325,5.632,5.6336,5.6118,5.6075,5.6322,5.6321,5.6321,5.6321,5.6321,5.6321,5.4796,5.4975,5.501,5.5232,5.5301,5.546,5.5528,5.562,5.5702,5.5896,5.6014,5.6069,5.6166,5.6317,5.6448,5.647,5.6523,5.6561,5.6581,5.6377,5.6351,5.6326,5.6285,5.6572,5.6573,5.6787,5.6789,5.6791]}]]